Location: Bambrugge
(50.9212°N, 3.9299°E)
Time: 05:25:53
(UTC+00:00)

COBE Rocket - Pass Details

Date: 23 May 2024
Orbit: 678 x 776 km, 97.1° (Epoch: 19 June)

Event Time Altitude Azimuth Distance (km) Brightness Sun altitude
Rises 02:16:42 0° 8° (N) 3,122 8.3 -10.7°
Reaches altitude 10° 02:19:01 10° 2° (N) 2,213 7.3 -10.5°
Maximum altitude 02:23:37 44° 291° (WNW) 1,008 4.5 -10.0°
Enters shadow 02:27:53 12° 222° (SW) 2,091 5.6 -9.6°
